Terug naar catalogus

STTW-1

ActiefWetenschapGEO
NORAD 16526·PAYLOAD·🇨🇳 China

Gelanceerd Feb 1, 1986 vanaf Xichang Satellite Launch Center

Loading…

TLE

VersSource: Space-Track

Epoch: Sep 13, 2026, 17:34 UTC

1 16526U 86010A   26256.73228119  .00000009  00000-0  00000-0 0  9998
2 16526  10.4791 322.9990 0003317 292.2587  63.8211  1.00216103156341

Volg STTW-1 in realtime met AllMySat

Download on the App Store